<?xml version="1.0" encoding="UTF-8" standalone="no" ?>
<gpx xmlns="http://www.topografix.com/GPX/1/1" xmlns:xsi="http://www.w3.org/2001/XMLSchema-instance" xsi:schemaLocation="http://www.topografix.com/GPX/1/1 http://www.topografix.com/GPX/1/1/gpx.xsd" version="1.1" creator="VisuGPX - https://www.visugpx.com">
  <metadata>
    <name>autre</name>
    <desc><![CDATA[Guillaume et Pierre]]></desc>
  </metadata>
  <trk>
    <name><![CDATA[16-FEV-14: 16 FEV 2014 10:42]]></name>
    <trkseg>
      <trkpt lat="45.77177" lon="4.84617">
        <ele>136.16</ele>
        <time>2014-02-16T09:42:39Z</time>
      </trkpt>
      <trkpt lat="45.77183" lon="4.84622">
        <ele>139.53</ele>
        <time>2014-02-16T09:43:34Z</time>
      </trkpt>
      <trkpt lat="45.77177" lon="4.84615">
        <ele>139.05</ele>
        <time>2014-02-16T09:43:51Z</time>
      </trkpt>
      <trkpt lat="45.7717" lon="4.84577">
        <ele>139.53</ele>
        <time>2014-02-16T09:44:05Z</time>
      </trkpt>
      <trkpt lat="45.77166" lon="4.846">
        <ele>140.01</ele>
        <time>2014-02-16T09:44:27Z</time>
      </trkpt>
      <trkpt lat="45.77213" lon="4.84579">
        <ele>140.49</ele>
        <time>2014-02-16T09:44:40Z</time>
      </trkpt>
      <trkpt lat="45.77246" lon="4.84574">
        <ele>140.97</ele>
        <time>2014-02-16T09:44:51Z</time>
      </trkpt>
      <trkpt lat="45.77269" lon="4.84589">
        <ele>141.45</ele>
        <time>2014-02-16T09:45:07Z</time>
      </trkpt>
      <trkpt lat="45.77286" lon="4.84607">
        <ele>142.41</ele>
        <time>2014-02-16T09:45:20Z</time>
      </trkpt>
      <trkpt lat="45.77286" lon="4.84664">
        <ele>143.37</ele>
        <time>2014-02-16T09:45:39Z</time>
      </trkpt>
      <trkpt lat="45.77331" lon="4.84643">
        <ele>143.37</ele>
        <time>2014-02-16T09:45:49Z</time>
      </trkpt>
      <trkpt lat="45.77319" lon="4.8466">
        <ele>144.34</ele>
        <time>2014-02-16T09:45:55Z</time>
      </trkpt>
      <trkpt lat="45.77323" lon="4.8468">
        <ele>144.82</ele>
        <time>2014-02-16T09:46:07Z</time>
      </trkpt>
      <trkpt lat="45.77389" lon="4.84634">
        <ele>145.78</ele>
        <time>2014-02-16T09:46:20Z</time>
      </trkpt>
      <trkpt lat="45.77407" lon="4.84664">
        <ele>147.22</ele>
        <time>2014-02-16T09:46:38Z</time>
      </trkpt>
      <trkpt lat="45.77411" lon="4.84712">
        <ele>148.18</ele>
        <time>2014-02-16T09:46:51Z</time>
      </trkpt>
      <trkpt lat="45.77494" lon="4.84662">
        <ele>149.62</ele>
        <time>2014-02-16T09:47:04Z</time>
      </trkpt>
      <trkpt lat="45.77533" lon="4.84673">
        <ele>150.58</ele>
        <time>2014-02-16T09:47:18Z</time>
      </trkpt>
      <trkpt lat="45.77533" lon="4.84718">
        <ele>152.03</ele>
        <time>2014-02-16T09:47:29Z</time>
      </trkpt>
      <trkpt lat="45.77552" lon="4.84703">
        <ele>152.99</ele>
        <time>2014-02-16T09:47:45Z</time>
      </trkpt>
      <trkpt lat="45.77567" lon="4.8471">
        <ele>154.91</ele>
        <time>2014-02-16T09:48:01Z</time>
      </trkpt>
      <trkpt lat="45.77664" lon="4.84574">
        <ele>157.79</ele>
        <time>2014-02-16T09:48:34Z</time>
      </trkpt>
      <trkpt lat="45.77688" lon="4.84553">
        <ele>158.27</ele>
        <time>2014-02-16T09:48:58Z</time>
      </trkpt>
      <trkpt lat="45.77705" lon="4.84531">
        <ele>160.2</ele>
        <time>2014-02-16T09:49:57Z</time>
      </trkpt>
      <trkpt lat="45.77711" lon="4.84525">
        <ele>162.6</ele>
        <time>2014-02-16T09:50:50Z</time>
      </trkpt>
      <trkpt lat="45.77716" lon="4.84534">
        <ele>163.08</ele>
        <time>2014-02-16T09:51:10Z</time>
      </trkpt>
      <trkpt lat="45.77713" lon="4.84542">
        <ele>163.08</ele>
        <time>2014-02-16T09:51:19Z</time>
      </trkpt>
      <trkpt lat="45.77683" lon="4.84579">
        <ele>163.08</ele>
        <time>2014-02-16T09:51:36Z</time>
      </trkpt>
      <trkpt lat="45.7764" lon="4.84645">
        <ele>162.12</ele>
        <time>2014-02-16T09:52:00Z</time>
      </trkpt>
      <trkpt lat="45.77604" lon="4.84716">
        <ele>162.12</ele>
        <time>2014-02-16T09:52:25Z</time>
      </trkpt>
      <trkpt lat="45.77572" lon="4.84802">
        <ele>160.2</ele>
        <time>2014-02-16T09:52:52Z</time>
      </trkpt>
      <trkpt lat="45.7755" lon="4.84849">
        <ele>161.64</ele>
        <time>2014-02-16T09:53:06Z</time>
      </trkpt>
      <trkpt lat="45.77522" lon="4.84928">
        <ele>162.12</ele>
        <time>2014-02-16T09:53:31Z</time>
      </trkpt>
      <trkpt lat="45.77488" lon="4.85006">
        <ele>162.6</ele>
        <time>2014-02-16T09:53:57Z</time>
      </trkpt>
      <trkpt lat="45.77426" lon="4.85137">
        <ele>161.64</ele>
        <time>2014-02-16T09:54:41Z</time>
      </trkpt>
      <trkpt lat="45.77404" lon="4.85147">
        <ele>161.64</ele>
        <time>2014-02-16T09:54:51Z</time>
      </trkpt>
      <trkpt lat="45.77374" lon="4.85152">
        <ele>162.6</ele>
        <time>2014-02-16T09:55:04Z</time>
      </trkpt>
      <trkpt lat="45.77355" lon="4.85182">
        <ele>162.6</ele>
        <time>2014-02-16T09:55:15Z</time>
      </trkpt>
      <trkpt lat="45.77349" lon="4.85207">
        <ele>162.12</ele>
        <time>2014-02-16T09:55:24Z</time>
      </trkpt>
      <trkpt lat="45.77351" lon="4.8525">
        <ele>162.12</ele>
        <time>2014-02-16T09:55:36Z</time>
      </trkpt>
      <trkpt lat="45.77314" lon="4.85345">
        <ele>163.08</ele>
        <time>2014-02-16T09:56:06Z</time>
      </trkpt>
      <trkpt lat="45.77301" lon="4.85385">
        <ele>162.12</ele>
        <time>2014-02-16T09:56:18Z</time>
      </trkpt>
      <trkpt lat="45.77295" lon="4.85411">
        <ele>162.6</ele>
        <time>2014-02-16T09:56:26Z</time>
      </trkpt>
      <trkpt lat="45.77321" lon="4.85439">
        <ele>162.6</ele>
        <time>2014-02-16T09:56:38Z</time>
      </trkpt>
      <trkpt lat="45.77353" lon="4.85482">
        <ele>162.6</ele>
        <time>2014-02-16T09:56:57Z</time>
      </trkpt>
      <trkpt lat="45.77357" lon="4.85544">
        <ele>162.12</ele>
        <time>2014-02-16T09:57:15Z</time>
      </trkpt>
      <trkpt lat="45.77366" lon="4.85622">
        <ele>162.6</ele>
        <time>2014-02-16T09:57:37Z</time>
      </trkpt>
      <trkpt lat="45.77381" lon="4.85639">
        <ele>162.12</ele>
        <time>2014-02-16T09:57:44Z</time>
      </trkpt>
      <trkpt lat="45.77391" lon="4.85673">
        <ele>162.6</ele>
        <time>2014-02-16T09:57:55Z</time>
      </trkpt>
      <trkpt lat="45.77398" lon="4.85718">
        <ele>162.6</ele>
        <time>2014-02-16T09:58:10Z</time>
      </trkpt>
      <trkpt lat="45.77407" lon="4.8575">
        <ele>163.08</ele>
        <time>2014-02-16T09:58:21Z</time>
      </trkpt>
      <trkpt lat="45.77419" lon="4.8578">
        <ele>163.08</ele>
        <time>2014-02-16T09:58:32Z</time>
      </trkpt>
      <trkpt lat="45.77458" lon="4.85812">
        <ele>163.08</ele>
        <time>2014-02-16T09:58:48Z</time>
      </trkpt>
      <trkpt lat="45.7754" lon="4.8584">
        <ele>163.08</ele>
        <time>2014-02-16T09:59:24Z</time>
      </trkpt>
      <trkpt lat="45.776" lon="4.85843">
        <ele>163.08</ele>
        <time>2014-02-16T09:59:47Z</time>
      </trkpt>
      <trkpt lat="45.77628" lon="4.8584">
        <ele>164.04</ele>
        <time>2014-02-16T09:59:59Z</time>
      </trkpt>
      <trkpt lat="45.77658" lon="4.85834">
        <ele>163.56</ele>
        <time>2014-02-16T10:00:12Z</time>
      </trkpt>
      <trkpt lat="45.77743" lon="4.85849">
        <ele>164.04</ele>
        <time>2014-02-16T10:00:49Z</time>
      </trkpt>
      <trkpt lat="45.77778" lon="4.85836">
        <ele>163.56</ele>
        <time>2014-02-16T10:01:02Z</time>
      </trkpt>
      <trkpt lat="45.77814" lon="4.85843">
        <ele>163.56</ele>
        <time>2014-02-16T10:01:17Z</time>
      </trkpt>
      <trkpt lat="45.77874" lon="4.8586">
        <ele>163.08</ele>
        <time>2014-02-16T10:01:42Z</time>
      </trkpt>
      <trkpt lat="45.77945" lon="4.8587">
        <ele>163.56</ele>
        <time>2014-02-16T10:02:08Z</time>
      </trkpt>
      <trkpt lat="45.78065" lon="4.8587">
        <ele>163.08</ele>
        <time>2014-02-16T10:02:56Z</time>
      </trkpt>
      <trkpt lat="45.78196" lon="4.8586">
        <ele>162.6</ele>
        <time>2014-02-16T10:03:48Z</time>
      </trkpt>
      <trkpt lat="45.78222" lon="4.85875">
        <ele>163.56</ele>
        <time>2014-02-16T10:04:01Z</time>
      </trkpt>
      <trkpt lat="45.78254" lon="4.85877">
        <ele>164.52</ele>
        <time>2014-02-16T10:04:13Z</time>
      </trkpt>
      <trkpt lat="45.78342" lon="4.85877">
        <ele>163.56</ele>
        <time>2014-02-16T10:04:46Z</time>
      </trkpt>
      <trkpt lat="45.78379" lon="4.85881">
        <ele>163.56</ele>
        <time>2014-02-16T10:05:00Z</time>
      </trkpt>
      <trkpt lat="45.78449" lon="4.859">
        <ele>167.41</ele>
        <time>2014-02-16T10:05:30Z</time>
      </trkpt>
      <trkpt lat="45.78456" lon="4.85885">
        <ele>167.41</ele>
        <time>2014-02-16T10:05:37Z</time>
      </trkpt>
      <trkpt lat="45.78458" lon="4.85802">
        <ele>165</ele>
        <time>2014-02-16T10:06:01Z</time>
      </trkpt>
      <trkpt lat="45.78447" lon="4.85752">
        <ele>164.04</ele>
        <time>2014-02-16T10:06:14Z</time>
      </trkpt>
      <trkpt lat="45.78432" lon="4.85703">
        <ele>162.6</ele>
        <time>2014-02-16T10:06:27Z</time>
      </trkpt>
      <trkpt lat="45.78413" lon="4.85647">
        <ele>163.56</ele>
        <time>2014-02-16T10:06:42Z</time>
      </trkpt>
      <trkpt lat="45.78424" lon="4.85609">
        <ele>163.56</ele>
        <time>2014-02-16T10:06:54Z</time>
      </trkpt>
      <trkpt lat="45.78439" lon="4.85566">
        <ele>163.56</ele>
        <time>2014-02-16T10:07:07Z</time>
      </trkpt>
      <trkpt lat="45.78434" lon="4.85523">
        <ele>163.56</ele>
        <time>2014-02-16T10:07:19Z</time>
      </trkpt>
      <trkpt lat="45.78411" lon="4.85428">
        <ele>163.56</ele>
        <time>2014-02-16T10:07:43Z</time>
      </trkpt>
      <trkpt lat="45.78404" lon="4.85385">
        <ele>164.04</ele>
        <time>2014-02-16T10:07:56Z</time>
      </trkpt>
      <trkpt lat="45.78389" lon="4.85338">
        <ele>163.08</ele>
        <time>2014-02-16T10:08:10Z</time>
      </trkpt>
      <trkpt lat="45.78361" lon="4.85272">
        <ele>164.52</ele>
        <time>2014-02-16T10:08:31Z</time>
      </trkpt>
      <trkpt lat="45.78329" lon="4.85188">
        <ele>164.04</ele>
        <time>2014-02-16T10:08:59Z</time>
      </trkpt>
      <trkpt lat="45.78282" lon="4.85109">
        <ele>165.48</ele>
        <time>2014-02-16T10:09:24Z</time>
      </trkpt>
      <trkpt lat="45.78258" lon="4.85072">
        <ele>164.52</ele>
        <time>2014-02-16T10:09:37Z</time>
      </trkpt>
      <trkpt lat="45.78213" lon="4.84969">
        <ele>166.45</ele>
        <time>2014-02-16T10:10:13Z</time>
      </trkpt>
      <trkpt lat="45.78138" lon="4.84888">
        <ele>166.45</ele>
        <time>2014-02-16T10:10:55Z</time>
      </trkpt>
      <trkpt lat="45.78123" lon="4.8486">
        <ele>166.93</ele>
        <time>2014-02-16T10:11:08Z</time>
      </trkpt>
      <trkpt lat="45.78095" lon="4.84828">
        <ele>167.41</ele>
        <time>2014-02-16T10:11:21Z</time>
      </trkpt>
      <trkpt lat="45.78074" lon="4.84813">
        <ele>165.48</ele>
        <time>2014-02-16T10:11:33Z</time>
      </trkpt>
      <trkpt lat="45.78044" lon="4.84765">
        <ele>165</ele>
        <time>2014-02-16T10:11:49Z</time>
      </trkpt>
      <trkpt lat="45.78005" lon="4.84729">
        <ele>164.52</ele>
        <time>2014-02-16T10:12:10Z</time>
      </trkpt>
      <trkpt lat="45.77947" lon="4.84686">
        <ele>162.6</ele>
        <time>2014-02-16T10:12:36Z</time>
      </trkpt>
      <trkpt lat="45.77885" lon="4.84652">
        <ele>163.56</ele>
        <time>2014-02-16T10:13:04Z</time>
      </trkpt>
      <trkpt lat="45.77857" lon="4.84639">
        <ele>162.6</ele>
        <time>2014-02-16T10:13:18Z</time>
      </trkpt>
      <trkpt lat="45.77797" lon="4.846">
        <ele>164.04</ele>
        <time>2014-02-16T10:13:48Z</time>
      </trkpt>
      <trkpt lat="45.77769" lon="4.84589">
        <ele>163.08</ele>
        <time>2014-02-16T10:13:59Z</time>
      </trkpt>
      <trkpt lat="45.77741" lon="4.84587">
        <ele>162.12</ele>
        <time>2014-02-16T10:14:11Z</time>
      </trkpt>
      <trkpt lat="45.77737" lon="4.84583">
        <ele>162.12</ele>
        <time>2014-02-16T10:14:17Z</time>
      </trkpt>
      <trkpt lat="45.77761" lon="4.84564">
        <ele>161.64</ele>
        <time>2014-02-16T10:14:29Z</time>
      </trkpt>
      <trkpt lat="45.77797" lon="4.84544">
        <ele>161.64</ele>
        <time>2014-02-16T10:14:44Z</time>
      </trkpt>
      <trkpt lat="45.77816" lon="4.84529">
        <ele>161.64</ele>
        <time>2014-02-16T10:14:56Z</time>
      </trkpt>
      <trkpt lat="45.77818" lon="4.84501">
        <ele>162.12</ele>
        <time>2014-02-16T10:15:07Z</time>
      </trkpt>
      <trkpt lat="45.77836" lon="4.84463">
        <ele>163.08</ele>
        <time>2014-02-16T10:15:18Z</time>
      </trkpt>
      <trkpt lat="45.77881" lon="4.8431">
        <ele>162.6</ele>
        <time>2014-02-16T10:16:01Z</time>
      </trkpt>
      <trkpt lat="45.779" lon="4.84212">
        <ele>161.64</ele>
        <time>2014-02-16T10:16:21Z</time>
      </trkpt>
      <trkpt lat="45.77913" lon="4.84173">
        <ele>161.16</ele>
        <time>2014-02-16T10:16:32Z</time>
      </trkpt>
      <trkpt lat="45.77928" lon="4.84147">
        <ele>160.2</ele>
        <time>2014-02-16T10:16:41Z</time>
      </trkpt>
      <trkpt lat="45.77943" lon="4.84143">
        <ele>160.2</ele>
        <time>2014-02-16T10:16:47Z</time>
      </trkpt>
      <trkpt lat="45.77994" lon="4.84169">
        <ele>159.72</ele>
        <time>2014-02-16T10:17:10Z</time>
      </trkpt>
      <trkpt lat="45.78029" lon="4.84197">
        <ele>159.72</ele>
        <time>2014-02-16T10:17:26Z</time>
      </trkpt>
      <trkpt lat="45.78048" lon="4.84205">
        <ele>158.75</ele>
        <time>2014-02-16T10:17:33Z</time>
      </trkpt>
      <trkpt lat="45.78061" lon="4.84205">
        <ele>159.24</ele>
        <time>2014-02-16T10:17:39Z</time>
      </trkpt>
      <trkpt lat="45.78106" lon="4.84233">
        <ele>159.72</ele>
        <time>2014-02-16T10:18:01Z</time>
      </trkpt>
      <trkpt lat="45.78192" lon="4.8431">
        <ele>160.2</ele>
        <time>2014-02-16T10:18:40Z</time>
      </trkpt>
      <trkpt lat="45.78209" lon="4.84319">
        <ele>160.2</ele>
        <time>2014-02-16T10:18:47Z</time>
      </trkpt>
      <trkpt lat="45.78233" lon="4.8434">
        <ele>159.72</ele>
        <time>2014-02-16T10:19:00Z</time>
      </trkpt>
      <trkpt lat="45.78325" lon="4.84435">
        <ele>160.2</ele>
        <time>2014-02-16T10:19:44Z</time>
      </trkpt>
      <trkpt lat="45.78368" lon="4.84493">
        <ele>160.68</ele>
        <time>2014-02-16T10:20:08Z</time>
      </trkpt>
      <trkpt lat="45.78394" lon="4.84523">
        <ele>160.2</ele>
        <time>2014-02-16T10:20:21Z</time>
      </trkpt>
      <trkpt lat="45.78417" lon="4.84564">
        <ele>159.72</ele>
        <time>2014-02-16T10:20:34Z</time>
      </trkpt>
      <trkpt lat="45.78456" lon="4.84604">
        <ele>160.2</ele>
        <time>2014-02-16T10:20:54Z</time>
      </trkpt>
      <trkpt lat="45.78509" lon="4.8468">
        <ele>161.16</ele>
        <time>2014-02-16T10:21:24Z</time>
      </trkpt>
      <trkpt lat="45.78518" lon="4.84699">
        <ele>161.16</ele>
        <time>2014-02-16T10:21:32Z</time>
      </trkpt>
      <trkpt lat="45.78539" lon="4.84699">
        <ele>161.64</ele>
        <time>2014-02-16T10:21:42Z</time>
      </trkpt>
      <trkpt lat="45.78557" lon="4.84688">
        <ele>164.52</ele>
        <time>2014-02-16T10:21:55Z</time>
      </trkpt>
      <trkpt lat="45.7858" lon="4.8466">
        <ele>170.77</ele>
        <time>2014-02-16T10:22:12Z</time>
      </trkpt>
      <trkpt lat="45.78617" lon="4.84626">
        <ele>181.83</ele>
        <time>2014-02-16T10:22:37Z</time>
      </trkpt>
      <trkpt lat="45.78638" lon="4.84622">
        <ele>185.67</ele>
        <time>2014-02-16T10:22:46Z</time>
      </trkpt>
      <trkpt lat="45.78655" lon="4.84609">
        <ele>189.04</ele>
        <time>2014-02-16T10:22:56Z</time>
      </trkpt>
      <trkpt lat="45.78666" lon="4.84594">
        <ele>192.4</ele>
        <time>2014-02-16T10:23:04Z</time>
      </trkpt>
      <trkpt lat="45.78668" lon="4.84594">
        <ele>193.36</ele>
        <time>2014-02-16T10:23:05Z</time>
      </trkpt>
      <trkpt lat="45.78681" lon="4.84581">
        <ele>196.25</ele>
        <time>2014-02-16T10:23:15Z</time>
      </trkpt>
      <trkpt lat="45.78698" lon="4.8457">
        <ele>199.13</ele>
        <time>2014-02-16T10:23:25Z</time>
      </trkpt>
      <trkpt lat="45.78745" lon="4.84559">
        <ele>205.86</ele>
        <time>2014-02-16T10:23:43Z</time>
      </trkpt>
      <trkpt lat="45.78748" lon="4.84551">
        <ele>206.34</ele>
        <time>2014-02-16T10:23:46Z</time>
      </trkpt>
      <trkpt lat="45.78711" lon="4.84534">
        <ele>209.22</ele>
        <time>2014-02-16T10:24:01Z</time>
      </trkpt>
      <trkpt lat="45.78683" lon="4.84525">
        <ele>210.67</ele>
        <time>2014-02-16T10:24:13Z</time>
      </trkpt>
      <trkpt lat="45.78664" lon="4.84514">
        <ele>214.03</ele>
        <time>2014-02-16T10:24:22Z</time>
      </trkpt>
      <trkpt lat="45.78662" lon="4.8451">
        <ele>214.99</ele>
        <time>2014-02-16T10:24:24Z</time>
      </trkpt>
      <trkpt lat="45.78668" lon="4.84484">
        <ele>218.84</ele>
        <time>2014-02-16T10:24:33Z</time>
      </trkpt>
      <trkpt lat="45.78685" lon="4.84454">
        <ele>223.64</ele>
        <time>2014-02-16T10:24:45Z</time>
      </trkpt>
      <trkpt lat="45.78694" lon="4.84441">
        <ele>227.01</ele>
        <time>2014-02-16T10:24:52Z</time>
      </trkpt>
      <trkpt lat="45.78715" lon="4.84422">
        <ele>229.89</ele>
        <time>2014-02-16T10:25:02Z</time>
      </trkpt>
      <trkpt lat="45.78763" lon="4.84351">
        <ele>235.18</ele>
        <time>2014-02-16T10:25:29Z</time>
      </trkpt>
      <trkpt lat="45.78778" lon="4.84334">
        <ele>239.02</ele>
        <time>2014-02-16T10:25:37Z</time>
      </trkpt>
      <trkpt lat="45.78791" lon="4.84325">
        <ele>240.47</ele>
        <time>2014-02-16T10:25:41Z</time>
      </trkpt>
      <trkpt lat="45.78791" lon="4.84325">
        <ele>241.43</ele>
        <time>2014-02-16T10:25:43Z</time>
      </trkpt>
      <trkpt lat="45.78769" lon="4.84347">
        <ele>240.95</ele>
        <time>2014-02-16T10:25:52Z</time>
      </trkpt>
      <trkpt lat="45.78752" lon="4.84371">
        <ele>236.62</ele>
        <time>2014-02-16T10:25:59Z</time>
      </trkpt>
      <trkpt lat="45.78737" lon="4.84383">
        <ele>234.22</ele>
        <time>2014-02-16T10:26:03Z</time>
      </trkpt>
      <trkpt lat="45.78733" lon="4.84394">
        <ele>232.78</ele>
        <time>2014-02-16T10:26:06Z</time>
      </trkpt>
      <trkpt lat="45.78696" lon="4.84439">
        <ele>230.85</ele>
        <time>2014-02-16T10:26:25Z</time>
      </trkpt>
      <trkpt lat="45.78698" lon="4.84441">
        <ele>230.37</ele>
        <time>2014-02-16T10:26:31Z</time>
      </trkpt>
      <trkpt lat="45.78724" lon="4.84416">
        <ele>231.81</ele>
        <time>2014-02-16T10:26:43Z</time>
      </trkpt>
      <trkpt lat="45.78758" lon="4.84364">
        <ele>234.22</ele>
        <time>2014-02-16T10:27:07Z</time>
      </trkpt>
      <trkpt lat="45.78786" lon="4.8433">
        <ele>240.95</ele>
        <time>2014-02-16T10:27:22Z</time>
      </trkpt>
      <trkpt lat="45.78786" lon="4.84323">
        <ele>242.39</ele>
        <time>2014-02-16T10:27:27Z</time>
      </trkpt>
      <trkpt lat="45.78776" lon="4.84295">
        <ele>244.31</ele>
        <time>2014-02-16T10:27:45Z</time>
      </trkpt>
      <trkpt lat="45.78748" lon="4.84242">
        <ele>244.79</ele>
        <time>2014-02-16T10:28:08Z</time>
      </trkpt>
      <trkpt lat="45.78726" lon="4.84203">
        <ele>242.39</ele>
        <time>2014-02-16T10:28:22Z</time>
      </trkpt>
      <trkpt lat="45.78705" lon="4.84154">
        <ele>239.99</ele>
        <time>2014-02-16T10:28:38Z</time>
      </trkpt>
      <trkpt lat="45.78666" lon="4.84081">
        <ele>238.54</ele>
        <time>2014-02-16T10:29:03Z</time>
      </trkpt>
      <trkpt lat="45.78657" lon="4.84062">
        <ele>237.1</ele>
        <time>2014-02-16T10:29:10Z</time>
      </trkpt>
      <trkpt lat="45.78642" lon="4.84021">
        <ele>236.62</ele>
        <time>2014-02-16T10:29:24Z</time>
      </trkpt>
      <trkpt lat="45.78578" lon="4.83888">
        <ele>236.62</ele>
        <time>2014-02-16T10:30:11Z</time>
      </trkpt>
      <trkpt lat="45.78535" lon="4.83832">
        <ele>237.1</ele>
        <time>2014-02-16T10:30:35Z</time>
      </trkpt>
      <trkpt lat="45.78524" lon="4.83808">
        <ele>238.06</ele>
        <time>2014-02-16T10:30:44Z</time>
      </trkpt>
      <trkpt lat="45.78503" lon="4.83761">
        <ele>237.58</ele>
        <time>2014-02-16T10:31:04Z</time>
      </trkpt>
      <trkpt lat="45.78486" lon="4.83701">
        <ele>239.99</ele>
        <time>2014-02-16T10:31:26Z</time>
      </trkpt>
      <trkpt lat="45.78475" lon="4.83662">
        <ele>239.99</ele>
        <time>2014-02-16T10:31:36Z</time>
      </trkpt>
      <trkpt lat="45.78471" lon="4.83635">
        <ele>240.47</ele>
        <time>2014-02-16T10:31:46Z</time>
      </trkpt>
      <trkpt lat="45.78451" lon="4.83609">
        <ele>239.51</ele>
        <time>2014-02-16T10:31:59Z</time>
      </trkpt>
      <trkpt lat="45.78381" lon="4.8351">
        <ele>231.81</ele>
        <time>2014-02-16T10:32:42Z</time>
      </trkpt>
      <trkpt lat="45.78355" lon="4.83482">
        <ele>231.33</ele>
        <time>2014-02-16T10:32:53Z</time>
      </trkpt>
      <trkpt lat="45.78344" lon="4.8348">
        <ele>230.37</ele>
        <time>2014-02-16T10:32:58Z</time>
      </trkpt>
      <trkpt lat="45.78316" lon="4.83499">
        <ele>229.41</ele>
        <time>2014-02-16T10:33:14Z</time>
      </trkpt>
      <trkpt lat="45.78316" lon="4.83517">
        <ele>227.01</ele>
        <time>2014-02-16T10:33:19Z</time>
      </trkpt>
      <trkpt lat="45.78308" lon="4.83547">
        <ele>225.09</ele>
        <time>2014-02-16T10:33:30Z</time>
      </trkpt>
      <trkpt lat="45.78295" lon="4.83609">
        <ele>216.43</ele>
        <time>2014-02-16T10:34:00Z</time>
      </trkpt>
      <trkpt lat="45.7831" lon="4.83647">
        <ele>214.99</ele>
        <time>2014-02-16T10:34:13Z</time>
      </trkpt>
      <trkpt lat="45.78308" lon="4.83688">
        <ele>214.51</ele>
        <time>2014-02-16T10:34:24Z</time>
      </trkpt>
      <trkpt lat="45.78303" lon="4.8372">
        <ele>213.07</ele>
        <time>2014-02-16T10:34:33Z</time>
      </trkpt>
      <trkpt lat="45.78293" lon="4.83744">
        <ele>210.19</ele>
        <time>2014-02-16T10:34:41Z</time>
      </trkpt>
      <trkpt lat="45.78284" lon="4.83787">
        <ele>207.3</ele>
        <time>2014-02-16T10:34:53Z</time>
      </trkpt>
      <trkpt lat="45.78265" lon="4.83864">
        <ele>206.34</ele>
        <time>2014-02-16T10:35:15Z</time>
      </trkpt>
      <trkpt lat="45.78243" lon="4.83886">
        <ele>202.98</ele>
        <time>2014-02-16T10:35:27Z</time>
      </trkpt>
      <trkpt lat="45.78215" lon="4.83907">
        <ele>197.69</ele>
        <time>2014-02-16T10:35:41Z</time>
      </trkpt>
      <trkpt lat="45.7819" lon="4.83941">
        <ele>196.25</ele>
        <time>2014-02-16T10:35:59Z</time>
      </trkpt>
      <trkpt lat="45.78177" lon="4.83944">
        <ele>197.21</ele>
        <time>2014-02-16T10:36:10Z</time>
      </trkpt>
      <trkpt lat="45.78095" lon="4.8401">
        <ele>189.04</ele>
        <time>2014-02-16T10:36:46Z</time>
      </trkpt>
      <trkpt lat="45.78091" lon="4.84014">
        <ele>188.08</ele>
        <time>2014-02-16T10:36:48Z</time>
      </trkpt>
      <trkpt lat="45.78091" lon="4.84021">
        <ele>187.11</ele>
        <time>2014-02-16T10:36:50Z</time>
      </trkpt>
      <trkpt lat="45.78091" lon="4.84016">
        <ele>185.67</ele>
        <time>2014-02-16T10:36:55Z</time>
      </trkpt>
      <trkpt lat="45.78089" lon="4.84021">
        <ele>182.31</ele>
        <time>2014-02-16T10:37:06Z</time>
      </trkpt>
      <trkpt lat="45.78044" lon="4.84053">
        <ele>177.02</ele>
        <time>2014-02-16T10:37:29Z</time>
      </trkpt>
      <trkpt lat="45.77977" lon="4.84109">
        <ele>169.33</ele>
        <time>2014-02-16T10:37:57Z</time>
      </trkpt>
      <trkpt lat="45.77952" lon="4.84117">
        <ele>166.93</ele>
        <time>2014-02-16T10:38:09Z</time>
      </trkpt>
      <trkpt lat="45.77947" lon="4.84111">
        <ele>167.41</ele>
        <time>2014-02-16T10:38:14Z</time>
      </trkpt>
      <trkpt lat="45.77937" lon="4.84111">
        <ele>167.41</ele>
        <time>2014-02-16T10:38:18Z</time>
      </trkpt>
      <trkpt lat="45.77891" lon="4.84068">
        <ele>168.37</ele>
        <time>2014-02-16T10:38:45Z</time>
      </trkpt>
      <trkpt lat="45.77887" lon="4.84064">
        <ele>170.77</ele>
        <time>2014-02-16T10:38:50Z</time>
      </trkpt>
      <trkpt lat="45.77879" lon="4.8404">
        <ele>177.02</ele>
        <time>2014-02-16T10:39:04Z</time>
      </trkpt>
      <trkpt lat="45.77872" lon="4.84038">
        <ele>178.46</ele>
        <time>2014-02-16T10:39:08Z</time>
      </trkpt>
      <trkpt lat="45.77872" lon="4.84029">
        <ele>181.35</ele>
        <time>2014-02-16T10:39:13Z</time>
      </trkpt>
      <trkpt lat="45.77866" lon="4.84012">
        <ele>185.19</ele>
        <time>2014-02-16T10:39:23Z</time>
      </trkpt>
      <trkpt lat="45.77855" lon="4.8401">
        <ele>187.59</ele>
        <time>2014-02-16T10:39:28Z</time>
      </trkpt>
      <trkpt lat="45.77851" lon="4.83997">
        <ele>191.92</ele>
        <time>2014-02-16T10:39:39Z</time>
      </trkpt>
      <trkpt lat="45.77834" lon="4.83984">
        <ele>195.77</ele>
        <time>2014-02-16T10:39:50Z</time>
      </trkpt>
      <trkpt lat="45.77825" lon="4.83984">
        <ele>197.21</ele>
        <time>2014-02-16T10:39:54Z</time>
      </trkpt>
      <trkpt lat="45.77806" lon="4.83995">
        <ele>202.49</ele>
        <time>2014-02-16T10:40:06Z</time>
      </trkpt>
      <trkpt lat="45.77795" lon="4.83986">
        <ele>205.38</ele>
        <time>2014-02-16T10:40:16Z</time>
      </trkpt>
      <trkpt lat="45.77788" lon="4.83969">
        <ele>210.19</ele>
        <time>2014-02-16T10:40:28Z</time>
      </trkpt>
      <trkpt lat="45.77782" lon="4.83965">
        <ele>212.11</ele>
        <time>2014-02-16T10:40:33Z</time>
      </trkpt>
      <trkpt lat="45.77765" lon="4.83935">
        <ele>216.43</ele>
        <time>2014-02-16T10:40:45Z</time>
      </trkpt>
      <trkpt lat="45.77754" lon="4.83905">
        <ele>221.72</ele>
        <time>2014-02-16T10:40:57Z</time>
      </trkpt>
      <trkpt lat="45.77754" lon="4.83892">
        <ele>225.57</ele>
        <time>2014-02-16T10:41:04Z</time>
      </trkpt>
      <trkpt lat="45.77748" lon="4.83886">
        <ele>228.93</ele>
        <time>2014-02-16T10:41:11Z</time>
      </trkpt>
      <trkpt lat="45.77765" lon="4.83875">
        <ele>227.49</ele>
        <time>2014-02-16T10:41:20Z</time>
      </trkpt>
      <trkpt lat="45.77767" lon="4.83886">
        <ele>225.09</ele>
        <time>2014-02-16T10:41:24Z</time>
      </trkpt>
      <trkpt lat="45.77786" lon="4.83871">
        <ele>220.28</ele>
        <time>2014-02-16T10:41:32Z</time>
      </trkpt>
      <trkpt lat="45.77788" lon="4.83868">
        <ele>219.32</ele>
        <time>2014-02-16T10:41:33Z</time>
      </trkpt>
      <trkpt lat="45.77791" lon="4.83853">
        <ele>222.68</ele>
        <time>2014-02-16T10:41:44Z</time>
      </trkpt>
      <trkpt lat="45.77782" lon="4.83845">
        <ele>225.57</ele>
        <time>2014-02-16T10:41:51Z</time>
      </trkpt>
      <trkpt lat="45.7772" lon="4.83901">
        <ele>227.97</ele>
        <time>2014-02-16T10:42:11Z</time>
      </trkpt>
      <trkpt lat="45.77692" lon="4.83888">
        <ele>227.01</ele>
        <time>2014-02-16T10:42:30Z</time>
      </trkpt>
      <trkpt lat="45.77662" lon="4.83828">
        <ele>226.53</ele>
        <time>2014-02-16T10:42:58Z</time>
      </trkpt>
      <trkpt lat="45.77634" lon="4.83768">
        <ele>227.01</ele>
        <time>2014-02-16T10:43:23Z</time>
      </trkpt>
      <trkpt lat="45.77623" lon="4.83735">
        <ele>227.97</ele>
        <time>2014-02-16T10:43:34Z</time>
      </trkpt>
      <trkpt lat="45.77623" lon="4.83701">
        <ele>227.49</ele>
        <time>2014-02-16T10:43:46Z</time>
      </trkpt>
      <trkpt lat="45.77619" lon="4.83669">
        <ele>227.49</ele>
        <time>2014-02-16T10:43:56Z</time>
      </trkpt>
      <trkpt lat="45.77602" lon="4.8366">
        <ele>224.61</ele>
        <time>2014-02-16T10:44:08Z</time>
      </trkpt>
      <trkpt lat="45.776" lon="4.83656">
        <ele>221.24</ele>
        <time>2014-02-16T10:44:12Z</time>
      </trkpt>
      <trkpt lat="45.77593" lon="4.8365">
        <ele>216.43</ele>
        <time>2014-02-16T10:44:18Z</time>
      </trkpt>
      <trkpt lat="45.77591" lon="4.83647">
        <ele>215.95</ele>
        <time>2014-02-16T10:44:20Z</time>
      </trkpt>
      <trkpt lat="45.7758" lon="4.8365">
        <ele>213.55</ele>
        <time>2014-02-16T10:44:27Z</time>
      </trkpt>
      <trkpt lat="45.77572" lon="4.8366">
        <ele>211.63</ele>
        <time>2014-02-16T10:44:32Z</time>
      </trkpt>
      <trkpt lat="45.7757" lon="4.83673">
        <ele>209.22</ele>
        <time>2014-02-16T10:44:39Z</time>
      </trkpt>
      <trkpt lat="45.77572" lon="4.8369">
        <ele>205.38</ele>
        <time>2014-02-16T10:44:46Z</time>
      </trkpt>
      <trkpt lat="45.77576" lon="4.83697">
        <ele>204.9</ele>
        <time>2014-02-16T10:44:48Z</time>
      </trkpt>
      <trkpt lat="45.77578" lon="4.8369">
        <ele>201.53</ele>
        <time>2014-02-16T10:44:57Z</time>
      </trkpt>
      <trkpt lat="45.77634" lon="4.83688">
        <ele>198.65</ele>
        <time>2014-02-16T10:45:10Z</time>
      </trkpt>
      <trkpt lat="45.77651" lon="4.8371">
        <ele>195.77</ele>
        <time>2014-02-16T10:45:21Z</time>
      </trkpt>
      <trkpt lat="45.77649" lon="4.83727">
        <ele>191.92</ele>
        <time>2014-02-16T10:45:31Z</time>
      </trkpt>
      <trkpt lat="45.77636" lon="4.83753">
        <ele>182.31</ele>
        <time>2014-02-16T10:45:47Z</time>
      </trkpt>
      <trkpt lat="45.77628" lon="4.83765">
        <ele>177.02</ele>
        <time>2014-02-16T10:45:58Z</time>
      </trkpt>
      <trkpt lat="45.77625" lon="4.83772">
        <ele>175.1</ele>
        <time>2014-02-16T10:46:02Z</time>
      </trkpt>
      <trkpt lat="45.7763" lon="4.83772">
        <ele>170.77</ele>
        <time>2014-02-16T10:46:10Z</time>
      </trkpt>
      <trkpt lat="45.77628" lon="4.83772">
        <ele>169.33</ele>
        <time>2014-02-16T10:46:18Z</time>
      </trkpt>
      <trkpt lat="45.77602" lon="4.83753">
        <ele>165.96</ele>
        <time>2014-02-16T10:46:29Z</time>
      </trkpt>
      <trkpt lat="45.776" lon="4.83692">
        <ele>160.68</ele>
        <time>2014-02-16T10:46:46Z</time>
      </trkpt>
      <trkpt lat="45.77597" lon="4.83718">
        <ele>156.83</ele>
        <time>2014-02-16T10:46:56Z</time>
      </trkpt>
      <trkpt lat="45.77589" lon="4.83723">
        <ele>154.91</ele>
        <time>2014-02-16T10:47:00Z</time>
      </trkpt>
      <trkpt lat="45.77555" lon="4.83714">
        <ele>149.62</ele>
        <time>2014-02-16T10:47:15Z</time>
      </trkpt>
      <trkpt lat="45.77531" lon="4.83692">
        <ele>145.3</ele>
        <time>2014-02-16T10:47:27Z</time>
      </trkpt>
      <trkpt lat="45.7751" lon="4.83665">
        <ele>141.93</ele>
        <time>2014-02-16T10:47:37Z</time>
      </trkpt>
      <trkpt lat="45.77503" lon="4.83654">
        <ele>138.57</ele>
        <time>2014-02-16T10:47:43Z</time>
      </trkpt>
      <trkpt lat="45.7751" lon="4.83654">
        <ele>141.45</ele>
        <time>2014-02-16T10:47:52Z</time>
      </trkpt>
      <trkpt lat="45.77507" lon="4.83654">
        <ele>143.37</ele>
        <time>2014-02-16T10:47:56Z</time>
      </trkpt>
      <trkpt lat="45.7751" lon="4.83654">
        <ele>144.34</ele>
        <time>2014-02-16T10:47:59Z</time>
      </trkpt>
      <trkpt lat="45.7751" lon="4.83624">
        <ele>147.22</ele>
        <time>2014-02-16T10:48:13Z</time>
      </trkpt>
      <trkpt lat="45.77516" lon="4.83622">
        <ele>149.62</ele>
        <time>2014-02-16T10:48:22Z</time>
      </trkpt>
      <trkpt lat="45.77518" lon="4.83594">
        <ele>153.47</ele>
        <time>2014-02-16T10:48:35Z</time>
      </trkpt>
      <trkpt lat="45.77531" lon="4.83585">
        <ele>157.31</ele>
        <time>2014-02-16T10:48:44Z</time>
      </trkpt>
      <trkpt lat="45.77548" lon="4.83579">
        <ele>159.24</ele>
        <time>2014-02-16T10:48:58Z</time>
      </trkpt>
      <trkpt lat="45.77559" lon="4.8357">
        <ele>162.6</ele>
        <time>2014-02-16T10:49:07Z</time>
      </trkpt>
      <trkpt lat="45.77572" lon="4.83549">
        <ele>165.48</ele>
        <time>2014-02-16T10:49:20Z</time>
      </trkpt>
      <trkpt lat="45.7757" lon="4.83529">
        <ele>168.85</ele>
        <time>2014-02-16T10:49:32Z</time>
      </trkpt>
      <trkpt lat="45.77576" lon="4.83508">
        <ele>171.73</ele>
        <time>2014-02-16T10:49:40Z</time>
      </trkpt>
      <trkpt lat="45.7758" lon="4.83499">
        <ele>172.69</ele>
        <time>2014-02-16T10:49:44Z</time>
      </trkpt>
      <trkpt lat="45.77587" lon="4.83476">
        <ele>173.17</ele>
        <time>2014-02-16T10:49:57Z</time>
      </trkpt>
      <trkpt lat="45.77589" lon="4.83465">
        <ele>176.54</ele>
        <time>2014-02-16T10:50:05Z</time>
      </trkpt>
      <trkpt lat="45.77632" lon="4.83635">
        <ele>177.5</ele>
        <time>2014-02-16T10:50:16Z</time>
      </trkpt>
      <trkpt lat="45.77516" lon="4.83609">
        <ele>176.54</ele>
        <time>2014-02-16T10:50:28Z</time>
      </trkpt>
      <trkpt lat="45.7749" lon="4.83617">
        <ele>174.14</ele>
        <time>2014-02-16T10:50:37Z</time>
      </trkpt>
      <trkpt lat="45.77479" lon="4.83613">
        <ele>172.21</ele>
        <time>2014-02-16T10:50:44Z</time>
      </trkpt>
      <trkpt lat="45.77445" lon="4.83592">
        <ele>175.58</ele>
        <time>2014-02-16T10:50:57Z</time>
      </trkpt>
      <trkpt lat="45.77439" lon="4.83577">
        <ele>177.98</ele>
        <time>2014-02-16T10:51:02Z</time>
      </trkpt>
      <trkpt lat="45.77437" lon="4.83551">
        <ele>180.87</ele>
        <time>2014-02-16T10:51:10Z</time>
      </trkpt>
      <trkpt lat="45.77437" lon="4.83523">
        <ele>187.11</ele>
        <time>2014-02-16T10:51:20Z</time>
      </trkpt>
      <trkpt lat="45.77452" lon="4.83493">
        <ele>189.04</ele>
        <time>2014-02-16T10:51:29Z</time>
      </trkpt>
      <trkpt lat="45.77488" lon="4.83489">
        <ele>190</ele>
        <time>2014-02-16T10:51:41Z</time>
      </trkpt>
      <trkpt lat="45.77488" lon="4.83484">
        <ele>190</ele>
        <time>2014-02-16T10:51:44Z</time>
      </trkpt>
      <trkpt lat="45.77458" lon="4.83482">
        <ele>191.92</ele>
        <time>2014-02-16T10:52:00Z</time>
      </trkpt>
      <trkpt lat="45.77434" lon="4.83474">
        <ele>190.96</ele>
        <time>2014-02-16T10:52:11Z</time>
      </trkpt>
      <trkpt lat="45.77402" lon="4.83476">
        <ele>187.59</ele>
        <time>2014-02-16T10:52:22Z</time>
      </trkpt>
      <trkpt lat="45.77368" lon="4.83471">
        <ele>184.23</ele>
        <time>2014-02-16T10:52:36Z</time>
      </trkpt>
      <trkpt lat="45.77295" lon="4.83471">
        <ele>175.1</ele>
        <time>2014-02-16T10:53:10Z</time>
      </trkpt>
      <trkpt lat="45.77267" lon="4.83452">
        <ele>174.62</ele>
        <time>2014-02-16T10:53:24Z</time>
      </trkpt>
      <trkpt lat="45.77252" lon="4.8345">
        <ele>174.62</ele>
        <time>2014-02-16T10:53:34Z</time>
      </trkpt>
      <trkpt lat="45.77241" lon="4.83446">
        <ele>174.14</ele>
        <time>2014-02-16T10:53:39Z</time>
      </trkpt>
      <trkpt lat="45.77213" lon="4.83416">
        <ele>172.21</ele>
        <time>2014-02-16T10:53:53Z</time>
      </trkpt>
      <trkpt lat="45.77196" lon="4.83379">
        <ele>171.25</ele>
        <time>2014-02-16T10:54:04Z</time>
      </trkpt>
      <trkpt lat="45.77185" lon="4.83328">
        <ele>168.85</ele>
        <time>2014-02-16T10:54:20Z</time>
      </trkpt>
      <trkpt lat="45.77123" lon="4.83336">
        <ele>165</ele>
        <time>2014-02-16T10:54:41Z</time>
      </trkpt>
      <trkpt lat="45.77113" lon="4.83338">
        <ele>162.12</ele>
        <time>2014-02-16T10:54:49Z</time>
      </trkpt>
      <trkpt lat="45.77093" lon="4.83347">
        <ele>156.83</ele>
        <time>2014-02-16T10:55:02Z</time>
      </trkpt>
      <trkpt lat="45.7708" lon="4.83332">
        <ele>153.47</ele>
        <time>2014-02-16T10:55:10Z</time>
      </trkpt>
      <trkpt lat="45.77048" lon="4.83341">
        <ele>152.03</ele>
        <time>2014-02-16T10:55:22Z</time>
      </trkpt>
      <trkpt lat="45.77022" lon="4.83336">
        <ele>150.58</ele>
        <time>2014-02-16T10:55:34Z</time>
      </trkpt>
      <trkpt lat="45.77018" lon="4.83343">
        <ele>148.66</ele>
        <time>2014-02-16T10:55:42Z</time>
      </trkpt>
      <trkpt lat="45.77016" lon="4.83323">
        <ele>145.78</ele>
        <time>2014-02-16T10:55:53Z</time>
      </trkpt>
      <trkpt lat="45.77022" lon="4.83319">
        <ele>141.93</ele>
        <time>2014-02-16T10:56:00Z</time>
      </trkpt>
      <trkpt lat="45.77022" lon="4.83319">
        <ele>138.57</ele>
        <time>2014-02-16T10:56:08Z</time>
      </trkpt>
      <trkpt lat="45.77016" lon="4.83315">
        <ele>135.68</ele>
        <time>2014-02-16T10:56:23Z</time>
      </trkpt>
      <trkpt lat="45.77016" lon="4.83311">
        <ele>135.68</ele>
        <time>2014-02-16T10:56:26Z</time>
      </trkpt>
      <trkpt lat="45.7698" lon="4.83272">
        <ele>137.13</ele>
        <time>2014-02-16T10:56:40Z</time>
      </trkpt>
      <trkpt lat="45.7696" lon="4.83233">
        <ele>137.61</ele>
        <time>2014-02-16T10:56:53Z</time>
      </trkpt>
      <trkpt lat="45.76969" lon="4.83192">
        <ele>139.05</ele>
        <time>2014-02-16T10:57:06Z</time>
      </trkpt>
      <trkpt lat="45.76958" lon="4.83188">
        <ele>139.05</ele>
        <time>2014-02-16T10:57:14Z</time>
      </trkpt>
      <trkpt lat="45.76941" lon="4.83199">
        <ele>136.64</ele>
        <time>2014-02-16T10:57:23Z</time>
      </trkpt>
      <trkpt lat="45.76924" lon="4.83203">
        <ele>135.2</ele>
        <time>2014-02-16T10:57:28Z</time>
      </trkpt>
      <trkpt lat="45.76904" lon="4.83182">
        <ele>133.76</ele>
        <time>2014-02-16T10:57:35Z</time>
      </trkpt>
      <trkpt lat="45.76857" lon="4.83184">
        <ele>132.32</ele>
        <time>2014-02-16T10:57:45Z</time>
      </trkpt>
      <trkpt lat="45.76821" lon="4.83182">
        <ele>130.4</ele>
        <time>2014-02-16T10:58:02Z</time>
      </trkpt>
      <trkpt lat="45.76819" lon="4.8318">
        <ele>130.4</ele>
        <time>2014-02-16T10:58:03Z</time>
      </trkpt>
      <trkpt lat="45.76816" lon="4.83115">
        <ele>129.43</ele>
        <time>2014-02-16T10:58:19Z</time>
      </trkpt>
      <trkpt lat="45.76816" lon="4.83034">
        <ele>128.95</ele>
        <time>2014-02-16T10:58:44Z</time>
      </trkpt>
      <trkpt lat="45.76806" lon="4.82971">
        <ele>127.99</ele>
        <time>2014-02-16T10:59:02Z</time>
      </trkpt>
      <trkpt lat="45.7678" lon="4.82939">
        <ele>127.03</ele>
        <time>2014-02-16T10:59:11Z</time>
      </trkpt>
      <trkpt lat="45.76752" lon="4.82907">
        <ele>127.03</ele>
        <time>2014-02-16T10:59:23Z</time>
      </trkpt>
      <trkpt lat="45.76718" lon="4.82933">
        <ele>126.55</ele>
        <time>2014-02-16T10:59:36Z</time>
      </trkpt>
      <trkpt lat="45.76688" lon="4.82969">
        <ele>128.47</ele>
        <time>2014-02-16T10:59:49Z</time>
      </trkpt>
      <trkpt lat="45.76673" lon="4.82995">
        <ele>128.95</ele>
        <time>2014-02-16T10:59:58Z</time>
      </trkpt>
      <trkpt lat="45.76658" lon="4.82971">
        <ele>130.88</ele>
        <time>2014-02-16T11:00:06Z</time>
      </trkpt>
      <trkpt lat="45.76653" lon="4.82941">
        <ele>131.84</ele>
        <time>2014-02-16T11:00:15Z</time>
      </trkpt>
      <trkpt lat="45.7664" lon="4.82901">
        <ele>131.36</ele>
        <time>2014-02-16T11:00:30Z</time>
      </trkpt>
      <trkpt lat="45.76647" lon="4.82871">
        <ele>130.4</ele>
        <time>2014-02-16T11:00:38Z</time>
      </trkpt>
      <trkpt lat="45.76628" lon="4.8283">
        <ele>129.92</ele>
        <time>2014-02-16T11:00:54Z</time>
      </trkpt>
      <trkpt lat="45.76598" lon="4.82772">
        <ele>132.8</ele>
        <time>2014-02-16T11:01:14Z</time>
      </trkpt>
      <trkpt lat="45.76598" lon="4.82744">
        <ele>133.28</ele>
        <time>2014-02-16T11:01:24Z</time>
      </trkpt>
      <trkpt lat="45.76591" lon="4.82705">
        <ele>136.64</ele>
        <time>2014-02-16T11:01:37Z</time>
      </trkpt>
      <trkpt lat="45.76589" lon="4.82686">
        <ele>139.53</ele>
        <time>2014-02-16T11:01:43Z</time>
      </trkpt>
      <trkpt lat="45.76568" lon="4.82669">
        <ele>142.41</ele>
        <time>2014-02-16T11:01:56Z</time>
      </trkpt>
      <trkpt lat="45.76542" lon="4.82662">
        <ele>146.26</ele>
        <time>2014-02-16T11:02:10Z</time>
      </trkpt>
      <trkpt lat="45.76527" lon="4.82654">
        <ele>150.1</ele>
        <time>2014-02-16T11:02:24Z</time>
      </trkpt>
      <trkpt lat="45.76497" lon="4.82654">
        <ele>153.47</ele>
        <time>2014-02-16T11:02:34Z</time>
      </trkpt>
      <trkpt lat="45.76469" lon="4.82637">
        <ele>156.83</ele>
        <time>2014-02-16T11:02:48Z</time>
      </trkpt>
      <trkpt lat="45.76458" lon="4.82626">
        <ele>160.2</ele>
        <time>2014-02-16T11:02:58Z</time>
      </trkpt>
      <trkpt lat="45.76417" lon="4.8262">
        <ele>163.56</ele>
        <time>2014-02-16T11:03:12Z</time>
      </trkpt>
      <trkpt lat="45.76394" lon="4.82605">
        <ele>166.93</ele>
        <time>2014-02-16T11:03:24Z</time>
      </trkpt>
      <trkpt lat="45.76364" lon="4.8259">
        <ele>169.81</ele>
        <time>2014-02-16T11:03:36Z</time>
      </trkpt>
      <trkpt lat="45.76321" lon="4.82544">
        <ele>177.98</ele>
        <time>2014-02-16T11:04:04Z</time>
      </trkpt>
      <trkpt lat="45.76304" lon="4.82517">
        <ele>181.35</ele>
        <time>2014-02-16T11:04:15Z</time>
      </trkpt>
      <trkpt lat="45.76267" lon="4.82506">
        <ele>184.71</ele>
        <time>2014-02-16T11:04:29Z</time>
      </trkpt>
      <trkpt lat="45.76235" lon="4.82448">
        <ele>196.25</ele>
        <time>2014-02-16T11:04:58Z</time>
      </trkpt>
      <trkpt lat="45.76224" lon="4.82422">
        <ele>201.53</ele>
        <time>2014-02-16T11:05:12Z</time>
      </trkpt>
      <trkpt lat="45.76222" lon="4.82418">
        <ele>203.46</ele>
        <time>2014-02-16T11:05:15Z</time>
      </trkpt>
      <trkpt lat="45.76237" lon="4.82422">
        <ele>206.34</ele>
        <time>2014-02-16T11:05:23Z</time>
      </trkpt>
      <trkpt lat="45.76267" lon="4.82435">
        <ele>210.67</ele>
        <time>2014-02-16T11:05:37Z</time>
      </trkpt>
      <trkpt lat="45.76269" lon="4.82433">
        <ele>211.15</ele>
        <time>2014-02-16T11:05:40Z</time>
      </trkpt>
      <trkpt lat="45.76261" lon="4.82422">
        <ele>212.59</ele>
        <time>2014-02-16T11:05:47Z</time>
      </trkpt>
      <trkpt lat="45.76228" lon="4.82396">
        <ele>217.88</ele>
        <time>2014-02-16T11:06:02Z</time>
      </trkpt>
      <trkpt lat="45.76224" lon="4.82384">
        <ele>221.24</ele>
        <time>2014-02-16T11:06:11Z</time>
      </trkpt>
      <trkpt lat="45.76226" lon="4.82379">
        <ele>222.2</ele>
        <time>2014-02-16T11:06:15Z</time>
      </trkpt>
      <trkpt lat="45.76233" lon="4.82375">
        <ele>223.64</ele>
        <time>2014-02-16T11:06:20Z</time>
      </trkpt>
      <trkpt lat="45.76271" lon="4.82384">
        <ele>228.45</ele>
        <time>2014-02-16T11:06:37Z</time>
      </trkpt>
      <trkpt lat="45.76276" lon="4.82377">
        <ele>229.41</ele>
        <time>2014-02-16T11:06:41Z</time>
      </trkpt>
      <trkpt lat="45.76252" lon="4.82362">
        <ele>231.81</ele>
        <time>2014-02-16T11:06:52Z</time>
      </trkpt>
      <trkpt lat="45.76231" lon="4.82345">
        <ele>234.7</ele>
        <time>2014-02-16T11:07:02Z</time>
      </trkpt>
      <trkpt lat="45.76274" lon="4.82349">
        <ele>243.35</ele>
        <time>2014-02-16T11:07:25Z</time>
      </trkpt>
      <trkpt lat="45.76284" lon="4.82343">
        <ele>244.31</ele>
        <time>2014-02-16T11:07:29Z</time>
      </trkpt>
      <trkpt lat="45.76269" lon="4.82323">
        <ele>247.68</ele>
        <time>2014-02-16T11:07:38Z</time>
      </trkpt>
      <trkpt lat="45.76259" lon="4.82321">
        <ele>250.08</ele>
        <time>2014-02-16T11:07:42Z</time>
      </trkpt>
      <trkpt lat="45.76244" lon="4.82308">
        <ele>253.44</ele>
        <time>2014-02-16T11:07:51Z</time>
      </trkpt>
      <trkpt lat="45.76241" lon="4.823">
        <ele>255.37</ele>
        <time>2014-02-16T11:07:55Z</time>
      </trkpt>
      <trkpt lat="45.76261" lon="4.82306">
        <ele>261.14</ele>
        <time>2014-02-16T11:08:05Z</time>
      </trkpt>
      <trkpt lat="45.76261" lon="4.82304">
        <ele>262.1</ele>
        <time>2014-02-16T11:08:07Z</time>
      </trkpt>
      <trkpt lat="45.76297" lon="4.82306">
        <ele>262.1</ele>
        <time>2014-02-16T11:08:30Z</time>
      </trkpt>
      <trkpt lat="45.76293" lon="4.82317">
        <ele>259.69</ele>
        <time>2014-02-16T11:08:34Z</time>
      </trkpt>
      <trkpt lat="45.76284" lon="4.82319">
        <ele>258.25</ele>
        <time>2014-02-16T11:08:37Z</time>
      </trkpt>
      <trkpt lat="45.7625" lon="4.82323">
        <ele>255.85</ele>
        <time>2014-02-16T11:08:49Z</time>
      </trkpt>
      <trkpt lat="45.76235" lon="4.82328">
        <ele>255.37</ele>
        <time>2014-02-16T11:08:57Z</time>
      </trkpt>
      <trkpt lat="45.76267" lon="4.82349">
        <ele>251.52</ele>
        <time>2014-02-16T11:09:08Z</time>
      </trkpt>
      <trkpt lat="45.76274" lon="4.82351">
        <ele>249.12</ele>
        <time>2014-02-16T11:09:11Z</time>
      </trkpt>
      <trkpt lat="45.76256" lon="4.82332">
        <ele>250.08</ele>
        <time>2014-02-16T11:09:23Z</time>
      </trkpt>
      <trkpt lat="45.76248" lon="4.8233">
        <ele>252.48</ele>
        <time>2014-02-16T11:09:29Z</time>
      </trkpt>
      <trkpt lat="45.76237" lon="4.82321">
        <ele>254.89</ele>
        <time>2014-02-16T11:09:35Z</time>
      </trkpt>
      <trkpt lat="45.76237" lon="4.82321">
        <ele>257.77</ele>
        <time>2014-02-16T11:09:43Z</time>
      </trkpt>
      <trkpt lat="45.76263" lon="4.82334">
        <ele>259.69</ele>
        <time>2014-02-16T11:09:57Z</time>
      </trkpt>
      <trkpt lat="45.76282" lon="4.82328">
        <ele>261.62</ele>
        <time>2014-02-16T11:10:05Z</time>
      </trkpt>
      <trkpt lat="45.76286" lon="4.82308">
        <ele>264.02</ele>
        <time>2014-02-16T11:10:14Z</time>
      </trkpt>
      <trkpt lat="45.76282" lon="4.82306">
        <ele>266.9</ele>
        <time>2014-02-16T11:10:20Z</time>
      </trkpt>
      <trkpt lat="45.76301" lon="4.82274">
        <ele>268.83</ele>
        <time>2014-02-16T11:10:36Z</time>
      </trkpt>
      <trkpt lat="45.76316" lon="4.82218">
        <ele>269.31</ele>
        <time>2014-02-16T11:10:52Z</time>
      </trkpt>
      <trkpt lat="45.76323" lon="4.82212">
        <ele>269.31</ele>
        <time>2014-02-16T11:10:58Z</time>
      </trkpt>
      <trkpt lat="45.76327" lon="4.82214">
        <ele>269.31</ele>
        <time>2014-02-16T11:11:01Z</time>
      </trkpt>
      <trkpt lat="45.76353" lon="4.82212">
        <ele>269.31</ele>
        <time>2014-02-16T11:11:15Z</time>
      </trkpt>
      <trkpt lat="45.76389" lon="4.82216">
        <ele>269.31</ele>
        <time>2014-02-16T11:11:29Z</time>
      </trkpt>
      <trkpt lat="45.764" lon="4.82186">
        <ele>268.83</ele>
        <time>2014-02-16T11:11:41Z</time>
      </trkpt>
      <trkpt lat="45.764" lon="4.82173">
        <ele>268.83</ele>
        <time>2014-02-16T11:11:44Z</time>
      </trkpt>
      <trkpt lat="45.76368" lon="4.82141">
        <ele>268.35</ele>
        <time>2014-02-16T11:11:58Z</time>
      </trkpt>
      <trkpt lat="45.76327" lon="4.82083">
        <ele>266.42</ele>
        <time>2014-02-16T11:12:21Z</time>
      </trkpt>
      <trkpt lat="45.76312" lon="4.82045">
        <ele>265.46</ele>
        <time>2014-02-16T11:12:33Z</time>
      </trkpt>
      <trkpt lat="45.76306" lon="4.81997">
        <ele>262.58</ele>
        <time>2014-02-16T11:12:46Z</time>
      </trkpt>
      <trkpt lat="45.76319" lon="4.81935">
        <ele>261.62</ele>
        <time>2014-02-16T11:13:03Z</time>
      </trkpt>
      <trkpt lat="45.76336" lon="4.81862">
        <ele>262.1</ele>
        <time>2014-02-16T11:13:24Z</time>
      </trkpt>
      <trkpt lat="45.76342" lon="4.81736">
        <ele>264.98</ele>
        <time>2014-02-16T11:14:03Z</time>
      </trkpt>
      <trkpt lat="45.76342" lon="4.81699">
        <ele>266.42</ele>
        <time>2014-02-16T11:14:15Z</time>
      </trkpt>
      <trkpt lat="45.76331" lon="4.81652">
        <ele>267.86</ele>
        <time>2014-02-16T11:14:27Z</time>
      </trkpt>
      <trkpt lat="45.76329" lon="4.81512">
        <ele>270.27</ele>
        <time>2014-02-16T11:15:07Z</time>
      </trkpt>
      <trkpt lat="45.76312" lon="4.81435">
        <ele>271.71</ele>
        <time>2014-02-16T11:15:31Z</time>
      </trkpt>
      <trkpt lat="45.76301" lon="4.81394">
        <ele>273.15</ele>
        <time>2014-02-16T11:15:45Z</time>
      </trkpt>
      <trkpt lat="45.76299" lon="4.81351">
        <ele>273.63</ele>
        <time>2014-02-16T11:15:57Z</time>
      </trkpt>
      <trkpt lat="45.76312" lon="4.81332">
        <ele>272.67</ele>
        <time>2014-02-16T11:16:06Z</time>
      </trkpt>
      <trkpt lat="45.76323" lon="4.81324">
        <ele>272.19</ele>
        <time>2014-02-16T11:16:12Z</time>
      </trkpt>
      <trkpt lat="45.76355" lon="4.81328">
        <ele>269.31</ele>
        <time>2014-02-16T11:16:25Z</time>
      </trkpt>
      <trkpt lat="45.76383" lon="4.81319">
        <ele>267.38</ele>
        <time>2014-02-16T11:16:37Z</time>
      </trkpt>
      <trkpt lat="45.76411" lon="4.81289">
        <ele>264.02</ele>
        <time>2014-02-16T11:16:51Z</time>
      </trkpt>
      <trkpt lat="45.76415" lon="4.81287">
        <ele>262.58</ele>
        <time>2014-02-16T11:16:53Z</time>
      </trkpt>
      <trkpt lat="45.76439" lon="4.81266">
        <ele>261.14</ele>
        <time>2014-02-16T11:17:03Z</time>
      </trkpt>
      <trkpt lat="45.76458" lon="4.81242">
        <ele>258.73</ele>
        <time>2014-02-16T11:17:13Z</time>
      </trkpt>
      <trkpt lat="45.76473" lon="4.81214">
        <ele>256.81</ele>
        <time>2014-02-16T11:17:23Z</time>
      </trkpt>
      <trkpt lat="45.7652" lon="4.81081">
        <ele>250.08</ele>
        <time>2014-02-16T11:18:02Z</time>
      </trkpt>
      <trkpt lat="45.76561" lon="4.8104">
        <ele>245.27</ele>
        <time>2014-02-16T11:18:23Z</time>
      </trkpt>
      <trkpt lat="45.76585" lon="4.81">
        <ele>241.91</ele>
        <time>2014-02-16T11:18:44Z</time>
      </trkpt>
      <trkpt lat="45.766" lon="4.81006">
        <ele>240.47</ele>
        <time>2014-02-16T11:18:49Z</time>
      </trkpt>
      <trkpt lat="45.76621" lon="4.80993">
        <ele>239.99</ele>
        <time>2014-02-16T11:18:56Z</time>
      </trkpt>
      <trkpt lat="45.76651" lon="4.80965">
        <ele>236.14</ele>
        <time>2014-02-16T11:19:09Z</time>
      </trkpt>
      <trkpt lat="45.76692" lon="4.80948">
        <ele>233.74</ele>
        <time>2014-02-16T11:19:25Z</time>
      </trkpt>
      <trkpt lat="45.76711" lon="4.80946">
        <ele>232.3</ele>
        <time>2014-02-16T11:19:34Z</time>
      </trkpt>
      <trkpt lat="45.76756" lon="4.80957">
        <ele>228.45</ele>
        <time>2014-02-16T11:19:51Z</time>
      </trkpt>
      <trkpt lat="45.7681" lon="4.80965">
        <ele>224.61</ele>
        <time>2014-02-16T11:20:12Z</time>
      </trkpt>
      <trkpt lat="45.76834" lon="4.80972">
        <ele>223.64</ele>
        <time>2014-02-16T11:20:24Z</time>
      </trkpt>
      <trkpt lat="45.76851" lon="4.80974">
        <ele>222.2</ele>
        <time>2014-02-16T11:20:36Z</time>
      </trkpt>
      <trkpt lat="45.76855" lon="4.80972">
        <ele>221.72</ele>
        <time>2014-02-16T11:20:42Z</time>
      </trkpt>
      <trkpt lat="45.76879" lon="4.80976">
        <ele>219.32</ele>
        <time>2014-02-16T11:20:54Z</time>
      </trkpt>
      <trkpt lat="45.76913" lon="4.80978">
        <ele>218.36</ele>
        <time>2014-02-16T11:21:07Z</time>
      </trkpt>
      <trkpt lat="45.76939" lon="4.80995">
        <ele>215.95</ele>
        <time>2014-02-16T11:21:19Z</time>
      </trkpt>
      <trkpt lat="45.76971" lon="4.81004">
        <ele>213.07</ele>
        <time>2014-02-16T11:21:32Z</time>
      </trkpt>
      <trkpt lat="45.77001" lon="4.80989">
        <ele>210.19</ele>
        <time>2014-02-16T11:21:44Z</time>
      </trkpt>
      <trkpt lat="45.7699" lon="4.80963">
        <ele>208.74</ele>
        <time>2014-02-16T11:21:53Z</time>
      </trkpt>
      <trkpt lat="45.76984" lon="4.80929">
        <ele>207.3</ele>
        <time>2014-02-16T11:22:03Z</time>
      </trkpt>
      <trkpt lat="45.77007" lon="4.80909">
        <ele>206.34</ele>
        <time>2014-02-16T11:22:12Z</time>
      </trkpt>
      <trkpt lat="45.77027" lon="4.80914">
        <ele>205.38</ele>
        <time>2014-02-16T11:22:19Z</time>
      </trkpt>
      <trkpt lat="45.77048" lon="4.80931">
        <ele>203.94</ele>
        <time>2014-02-16T11:22:30Z</time>
      </trkpt>
      <trkpt lat="45.77089" lon="4.80944">
        <ele>200.57</ele>
        <time>2014-02-16T11:22:48Z</time>
      </trkpt>
      <trkpt lat="45.7716" lon="4.80952">
        <ele>196.73</ele>
        <time>2014-02-16T11:23:15Z</time>
      </trkpt>
      <trkpt lat="45.7722" lon="4.80965">
        <ele>193.36</ele>
        <time>2014-02-16T11:23:37Z</time>
      </trkpt>
      <trkpt lat="45.77233" lon="4.80939">
        <ele>189.52</ele>
        <time>2014-02-16T11:23:48Z</time>
      </trkpt>
      <trkpt lat="45.77224" lon="4.80933">
        <ele>187.11</ele>
        <time>2014-02-16T11:23:53Z</time>
      </trkpt>
      <trkpt lat="45.77205" lon="4.80933">
        <ele>184.23</ele>
        <time>2014-02-16T11:24:02Z</time>
      </trkpt>
      <trkpt lat="45.7719" lon="4.80916">
        <ele>182.79</ele>
        <time>2014-02-16T11:24:13Z</time>
      </trkpt>
      <trkpt lat="45.77181" lon="4.80903">
        <ele>179.42</ele>
        <time>2014-02-16T11:24:21Z</time>
      </trkpt>
      <trkpt lat="45.77183" lon="4.80894">
        <ele>176.54</ele>
        <time>2014-02-16T11:24:25Z</time>
      </trkpt>
      <trkpt lat="45.77185" lon="4.80892">
        <ele>176.54</ele>
        <time>2014-02-16T11:24:26Z</time>
      </trkpt>
      <trkpt lat="45.77188" lon="4.80884">
        <ele>173.17</ele>
        <time>2014-02-16T11:24:31Z</time>
      </trkpt>
      <trkpt lat="45.77196" lon="4.80875">
        <ele>169.33</ele>
        <time>2014-02-16T11:24:38Z</time>
      </trkpt>
      <trkpt lat="45.77209" lon="4.80866">
        <ele>165.96</ele>
        <time>2014-02-16T11:24:47Z</time>
      </trkpt>
      <trkpt lat="45.7725" lon="4.80851">
        <ele>160.68</ele>
        <time>2014-02-16T11:25:10Z</time>
      </trkpt>
      <trkpt lat="45.77282" lon="4.80843">
        <ele>159.24</ele>
        <time>2014-02-16T11:25:25Z</time>
      </trkpt>
      <trkpt lat="45.77312" lon="4.80824">
        <ele>156.83</ele>
        <time>2014-02-16T11:25:39Z</time>
      </trkpt>
      <trkpt lat="45.77342" lon="4.8083">
        <ele>155.39</ele>
        <time>2014-02-16T11:25:52Z</time>
      </trkpt>
      <trkpt lat="45.77372" lon="4.80892">
        <ele>154.43</ele>
        <time>2014-02-16T11:26:18Z</time>
      </trkpt>
      <trkpt lat="45.77389" lon="4.80942">
        <ele>154.91</ele>
        <time>2014-02-16T11:26:53Z</time>
      </trkpt>
      <trkpt lat="45.77396" lon="4.80942">
        <ele>155.39</ele>
        <time>2014-02-16T11:26:57Z</time>
      </trkpt>
      <trkpt lat="45.77419" lon="4.80924">
        <ele>154.43</ele>
        <time>2014-02-16T11:27:10Z</time>
      </trkpt>
      <trkpt lat="45.77434" lon="4.80909">
        <ele>154.91</ele>
        <time>2014-02-16T11:27:20Z</time>
      </trkpt>
      <trkpt lat="45.77477" lon="4.80879">
        <ele>154.91</ele>
        <time>2014-02-16T11:27:36Z</time>
      </trkpt>
      <trkpt lat="45.77486" lon="4.80897">
        <ele>156.83</ele>
        <time>2014-02-16T11:27:43Z</time>
      </trkpt>
      <trkpt lat="45.77484" lon="4.80942">
        <ele>157.79</ele>
        <time>2014-02-16T11:27:57Z</time>
      </trkpt>
      <trkpt lat="45.77473" lon="4.81077">
        <ele>156.83</ele>
        <time>2014-02-16T11:28:35Z</time>
      </trkpt>
      <trkpt lat="45.77467" lon="4.81105">
        <ele>155.87</ele>
        <time>2014-02-16T11:28:47Z</time>
      </trkpt>
      <trkpt lat="45.77475" lon="4.81107">
        <ele>156.35</ele>
        <time>2014-02-16T11:29:11Z</time>
      </trkpt>
      <trkpt lat="45.77492" lon="4.81135">
        <ele>155.39</ele>
        <time>2014-02-16T11:29:23Z</time>
      </trkpt>
      <trkpt lat="45.7749" lon="4.81201">
        <ele>155.87</ele>
        <time>2014-02-16T11:29:45Z</time>
      </trkpt>
      <trkpt lat="45.77486" lon="4.81244">
        <ele>155.87</ele>
        <time>2014-02-16T11:29:58Z</time>
      </trkpt>
      <trkpt lat="45.77486" lon="4.81283">
        <ele>157.31</ele>
        <time>2014-02-16T11:30:11Z</time>
      </trkpt>
      <trkpt lat="45.77482" lon="4.81332">
        <ele>156.35</ele>
        <time>2014-02-16T11:30:25Z</time>
      </trkpt>
      <trkpt lat="45.77479" lon="4.81379">
        <ele>157.31</ele>
        <time>2014-02-16T11:30:39Z</time>
      </trkpt>
      <trkpt lat="45.77486" lon="4.81424">
        <ele>155.87</ele>
        <time>2014-02-16T11:30:53Z</time>
      </trkpt>
      <trkpt lat="45.77522" lon="4.81594">
        <ele>156.35</ele>
        <time>2014-02-16T11:31:28Z</time>
      </trkpt>
      <trkpt lat="45.77299" lon="4.83682">
        <ele>139.05</ele>
        <time>2014-02-16T11:41:06Z</time>
      </trkpt>
      <trkpt lat="45.77284" lon="4.83783">
        <ele>140.49</ele>
        <time>2014-02-16T11:41:27Z</time>
      </trkpt>
      <trkpt lat="45.77276" lon="4.83862">
        <ele>142.89</ele>
        <time>2014-02-16T11:41:45Z</time>
      </trkpt>
      <trkpt lat="45.77265" lon="4.83888">
        <ele>143.85</ele>
        <time>2014-02-16T11:41:55Z</time>
      </trkpt>
      <trkpt lat="45.77256" lon="4.83956">
        <ele>144.34</ele>
        <time>2014-02-16T11:42:14Z</time>
      </trkpt>
      <trkpt lat="45.77248" lon="4.84077">
        <ele>143.37</ele>
        <time>2014-02-16T11:42:45Z</time>
      </trkpt>
      <trkpt lat="45.77248" lon="4.84145">
        <ele>141.93</ele>
        <time>2014-02-16T11:43:02Z</time>
      </trkpt>
      <trkpt lat="45.77243" lon="4.84152">
        <ele>141.45</ele>
        <time>2014-02-16T11:43:08Z</time>
      </trkpt>
      <trkpt lat="45.77237" lon="4.8415">
        <ele>141.93</ele>
        <time>2014-02-16T11:43:10Z</time>
      </trkpt>
      <trkpt lat="45.77243" lon="4.84171">
        <ele>141.45</ele>
        <time>2014-02-16T11:43:18Z</time>
      </trkpt>
      <trkpt lat="45.77248" lon="4.84222">
        <ele>141.45</ele>
        <time>2014-02-16T11:43:30Z</time>
      </trkpt>
      <trkpt lat="45.77256" lon="4.84257">
        <ele>141.45</ele>
        <time>2014-02-16T11:43:40Z</time>
      </trkpt>
      <trkpt lat="45.77273" lon="4.84287">
        <ele>141.93</ele>
        <time>2014-02-16T11:43:49Z</time>
      </trkpt>
      <trkpt lat="45.77231" lon="4.84334">
        <ele>142.41</ele>
        <time>2014-02-16T11:44:03Z</time>
      </trkpt>
      <trkpt lat="45.77188" lon="4.84349">
        <ele>142.89</ele>
        <time>2014-02-16T11:44:18Z</time>
      </trkpt>
      <trkpt lat="45.77179" lon="4.84386">
        <ele>143.37</ele>
        <time>2014-02-16T11:44:29Z</time>
      </trkpt>
      <trkpt lat="45.7717" lon="4.84469">
        <ele>144.82</ele>
        <time>2014-02-16T11:44:56Z</time>
      </trkpt>
      <trkpt lat="45.77179" lon="4.8448">
        <ele>144.82</ele>
        <time>2014-02-16T11:45:00Z</time>
      </trkpt>
      <trkpt lat="45.7717" lon="4.84546">
        <ele>145.3</ele>
        <time>2014-02-16T11:45:12Z</time>
      </trkpt>
      <trkpt lat="45.77166" lon="4.84557">
        <ele>145.78</ele>
        <time>2014-02-16T11:45:14Z</time>
      </trkpt>
      <trkpt lat="45.77162" lon="4.84594">
        <ele>146.26</ele>
        <time>2014-02-16T11:45:29Z</time>
      </trkpt>
      <trkpt lat="45.77166" lon="4.84643">
        <ele>146.74</ele>
        <time>2014-02-16T11:45:42Z</time>
      </trkpt>
      <trkpt lat="45.77175" lon="4.84654">
        <ele>147.7</ele>
        <time>2014-02-16T11:45:56Z</time>
      </trkpt>
      <trkpt lat="45.77183" lon="4.84649">
        <ele>150.1</ele>
        <time>2014-02-16T11:46:37Z</time>
      </trkpt>
      <trkpt lat="45.77183" lon="4.84643">
        <ele>150.58</ele>
        <time>2014-02-16T11:46:43Z</time>
      </trkpt>
      <trkpt lat="45.77158" lon="4.84594">
        <ele>151.54</ele>
        <time>2014-02-16T11:46:56Z</time>
      </trkpt>
      <trkpt lat="45.77158" lon="4.84594">
        <ele>247.68</ele>
        <time>2014-02-16T11:53:38Z</time>
      </trkpt>
      <trkpt lat="45.77158" lon="4.84594">
        <ele>165</ele>
        <time>2014-02-16T11:53:39Z</time>
      </trkpt>
    </trkseg>
  </trk>
</gpx>